• In Moldova, Republic
  • List of Countries
  • For 7 days
  • Water Temperature
  • Satellite Maps
  • Weather Map
  • Weather Widgets
  • user-avatar
    Login

    Hourly Weather Satif

    Today, 25 March, Saturday

    Time Temperature Precipitation Wind Pressure Humidity
    00:00 +4°C° 0 mm 2 mps 670 mmHg 94%
    01:00 +3°C° 0 mm 2 mps 670 mmHg 94%
    02:00 +4°C° 0 mm 1 mps 670 mmHg 94%
    03:00 +3°C° 0 mm 1 mps 670 mmHg 95%
    04:00 +3°C° 0 mm 1 mps 670 mmHg 94%
    05:00 +3°C° 0 mm 1 mps 670 mmHg 94%
    06:00 +4°C° 0 mm 1 mps 671 mmHg 92%
    07:00 +6°C° 0 mm 1 mps 672 mmHg 78%
    08:00 +8°C° 0 mm 0 mps 673 mmHg 64%
    09:00 +10°C° 0 mm 0 mps 674 mmHg 50%
    10:00 +13°C° 0 mm 1 mps 674 mmHg 42%
    11:00 +15°C° 0 mm 1 mps 675 mmHg 34%
    12:00 +16°C° 0 mm 1 mps 676 mmHg 27%
    13:00 +16°C° 0 mm 1 mps 675 mmHg 26%
    14:00 +16°C° 0 mm 1 mps 675 mmHg 25%
    15:00 +16°C° 0 mm 2 mps 674 mmHg 24%
    16:00 +13°C° 0 mm 1 mps 673 mmHg 35%
    17:00 +10°C° 0 mm 1 mps 672 mmHg 46%
    18:00 +7°C° 0 mm 1 mps 672 mmHg 56%
    19:00 +7°C° 0 mm 1 mps 672 mmHg 61%
    20:00 +6°C° 0 mm 1 mps 672 mmHg 66%
    21:00 +6°C° 0 mm 1 mps 672 mmHg 71%
    22:00 +6°C° 0 mm 1 mps 672 mmHg 75%
    23:00 +5°C° 0 mm 1 mps 672 mmHg 79%

    Tomorrow, 26 March, Sunday

    Time Temperature Precipitation Wind Pressure Humidity
    00:00 +5°C° 0 mm 1 mps 672 mmHg 84%
    01:00 +6°C° 0 mm 1 mps 672 mmHg 83%
    02:00 +6°C° 0 mm 1 mps 672 mmHg 83%
    03:00 +7°C° 0 mm 1 mps 672 mmHg 83%
    04:00 +7°C° 0 mm 1 mps 672 mmHg 83%
    05:00 +7°C° 0 mm 1 mps 672 mmHg 84%
    06:00 +6°C° 0 mm 1 mps 671 mmHg 84%
    07:00 +10°C° 0 mm 1 mps 672 mmHg 67%
    08:00 +13°C° 0 mm 1 mps 673 mmHg 49%
    09:00 +18°C° 0 mm 1 mps 674 mmHg 31%
    10:00 +19°C° 0 mm 1 mps 674 mmHg 27%
    11:00 +21°C° 0 mm 1 mps 675 mmHg 22%
    12:00 +21°C° 0 mm 2 mps 675 mmHg 18%
    13:00 +21°C° 0 mm 2 mps 674 mmHg 18%
    14:00 +21°C° 0 mm 2 mps 674 mmHg 19%
    15:00 +21°C° 0 mm 2 mps 673 mmHg 19%
    16:00 +17°C° 0 mm 2 mps 672 mmHg 30%
    17:00 +14°C° 0 mm 2 mps 671 mmHg 42%
    18:00 +10°C° 0 mm 1 mps 670 mmHg 53%
    19:00 +10°C° 0 mm 1 mps 670 mmHg 56%
    20:00 +9°C° 0 mm 1 mps 671 mmHg 58%
    21:00 +8°C° 0 mm 1 mps 671 mmHg 60%
    22:00 +8°C° 0 mm 1 mps 671 mmHg 61%
    23:00 +8°C° 0 mm 1 mps 671 mmHg 62%

    Day after tomorrow, 27 March, Monday

    Time Temperature Precipitation Wind Pressure Humidity
    00:00 +8°C° 0 mm 1 mps 671 mmHg 62%
    01:00 +8°C° 0 mm 1 mps 671 mmHg 64%
    02:00 +7°C° 0 mm 1 mps 670 mmHg 66%
    03:00 +7°C° 0 mm 1 mps 670 mmHg 68%
    04:00 +6°C° 0 mm 2 mps 670 mmHg 66%
    05:00 +7°C° 0 mm 2 mps 670 mmHg 64%
    06:00 +7°C° 0 mm 2 mps 670 mmHg 62%
    07:00 +10°C° 0 mm 2 mps 672 mmHg 52%
    08:00 +15°C° 0 mm 2 mps 673 mmHg 42%
    09:00 +18°C° 0 mm 3 mps 675 mmHg 32%
    10:00 +19°C° 0 mm 3 mps 675 mmHg 31%
    11:00 +20°C° 0 mm 3 mps 675 mmHg 30%
    12:00 +21°C° 0 mm 3 mps 675 mmHg 29%
    13:00 +20°C° 0 mm 3 mps 675 mmHg 32%
    14:00 +20°C° 0 mm 3 mps 675 mmHg 34%
    15:00 +19°C° 0 mm 3 mps 675 mmHg 36%
    16:00 +17°C° 0 mm 2 mps 674 mmHg 47%
    17:00 +14°C° 0 mm 2 mps 674 mmHg 58%
    18:00 +12°C° 0 mm 2 mps 674 mmHg 69%
    19:00 +9°C° 0 mm 2 mps 674 mmHg 76%
    20:00 +9°C° 0 mm 1 mps 674 mmHg 83%
    21:00 +8°C° 0 mm 1 mps 675 mmHg 91%
    22:00 +7°C° 0 mm 1 mps 674 mmHg 92%
    23:00 +6°C° 0 mm 1 mps 674 mmHg 93%

    28 March, Tuesday

    Time Temperature Precipitation Wind Pressure Humidity
    00:00 +6°C° 0 mm 1 mps 674 mmHg 94%
    01:00 +5°C° 0 mm 1 mps 674 mmHg 93%
    02:00 +5°C° 0 mm 1 mps 674 mmHg 93%
    03:00 +5°C° 0 mm 1 mps 673 mmHg 93%
    04:00 +5°C° 0 mm 1 mps 674 mmHg 92%
    05:00 +5°C° 0 mm 1 mps 674 mmHg 92%
    06:00 +5°C° 0 mm 1 mps 674 mmHg 92%
    07:00 +8°C° 0 mm 1 mps 675 mmHg 76%
    08:00 +11°C° 0 mm 1 mps 676 mmHg 61%
    09:00 +14°C° 0 mm 1 mps 677 mmHg 46%
    10:00 +16°C° 0 mm 1 mps 677 mmHg 41%
    11:00 +17°C° 0 mm 2 mps 677 mmHg 35%
    12:00 +18°C° 0 mm 2 mps 677 mmHg 29%
    13:00 +18°C° 0 mm 3 mps 677 mmHg 31%
    14:00 +18°C° 0 mm 3 mps 677 mmHg 33%
    15:00 +17°C° 0 mm 3 mps 676 mmHg 35%
    16:00 +14°C° 0 mm 3 mps 676 mmHg 47%
    17:00 +12°C° 0 mm 3 mps 676 mmHg 59%
    18:00 +9°C° 0 mm 2 mps 675 mmHg 70%
    19:00 +8°C° 0 mm 2 mps 676 mmHg 77%
    20:00 +8°C° 0 mm 1 mps 676 mmHg 83%
    21:00 +6°C° 0 mm 1 mps 676 mmHg 90%
    22:00 +6°C° 0 mm 1 mps 676 mmHg 91%
    23:00 +5°C° 0 mm 1 mps 675 mmHg 92%

    29 March, Wednesday

    Time Temperature Precipitation Wind Pressure Humidity
    00:00 +4°C° 0 mm 1 mps 675 mmHg 93%
    01:00 +4°C° 0 mm 1 mps 675 mmHg 93%
    02:00 +4°C° 0 mm 1 mps 674 mmHg 94%
    03:00 +3°C° 0 mm 1 mps 674 mmHg 94%
    04:00 +3°C° 0 mm 1 mps 675 mmHg 94%
    05:00 +4°C° 0 mm 1 mps 675 mmHg 94%
    06:00 +4°C° 0 mm 1 mps 675 mmHg 94%
    07:00 +7°C° 0 mm 1 mps 676 mmHg 79%
    08:00 +10°C° 0 mm 1 mps 677 mmHg 65%
    09:00 +14°C° 0 mm 1 mps 678 mmHg 51%
    10:00 +15°C° 0 mm 1 mps 678 mmHg 46%
    11:00 +16°C° 0 mm 2 mps 678 mmHg 41%
    12:00 +17°C° 0 mm 2 mps 678 mmHg 36%
    13:00 +17°C° 0 mm 2 mps 678 mmHg 38%
    14:00 +17°C° 0 mm 3 mps 677 mmHg 39%
    15:00 +17°C° 0 mm 3 mps 677 mmHg 40%
    16:00 +15°C° 0 mm 2 mps 677 mmHg 51%
    17:00 +13°C° 0 mm 2 mps 676 mmHg 63%
    18:00 +9°C° 0 mm 2 mps 676 mmHg 74%
    19:00 +8°C° 0 mm 2 mps 676 mmHg 80%
    20:00 +8°C° 0 mm 1 mps 676 mmHg 86%
    21:00 +6°C° 0 mm 1 mps 676 mmHg 92%
    22:00 +6°C° 0 mm 1 mps 676 mmHg 92%
    23:00 +5°C° 0 mm 1 mps 675 mmHg 93%

    30 March, Thursday

    Time Temperature Precipitation Wind Pressure Humidity
    00:00 +5°C° 0 mm 1 mps 675 mmHg 93%
    01:00 +5°C° 0 mm 1 mps 675 mmHg 92%
    02:00 +4°C° 0 mm 1 mps 674 mmHg 92%
    03:00 +4°C° 0 mm 1 mps 674 mmHg 91%
    04:00 +5°C° 0 mm 1 mps 674 mmHg 89%
    05:00 +5°C° 0 mm 1 mps 674 mmHg 88%
    06:00 +6°C° 0 mm 1 mps 675 mmHg 86%
    07:00 +8°C° 0 mm 2 mps 676 mmHg 69%
    08:00 +13°C° 0 mm 2 mps 677 mmHg 53%
    09:00 +17°C° 0 mm 2 mps 678 mmHg 37%
    10:00 +18°C° 0 mm 3 mps 678 mmHg 33%
    11:00 +19°C° 0 mm 3 mps 678 mmHg 29%
    12:00 +21°C° 0 mm 3 mps 678 mmHg 24%
    13:00 +21°C° 0 mm 3 mps 677 mmHg 25%
    14:00 +21°C° 0 mm 3 mps 677 mmHg 25%
    15:00 +21°C° 0 mm 3 mps 676 mmHg 26%
    16:00 +18°C° 0 mm 2 mps 675 mmHg 36%
    17:00 +14°C° 0 mm 2 mps 675 mmHg 47%
    18:00 +11°C° 0 mm 1 mps 674 mmHg 57%
    19:00 +11°C° 0 mm 1 mps 674 mmHg 58%
    20:00 +10°C° 0 mm 1 mps 674 mmHg 59%
    21:00 +10°C° 0 mm 1 mps 674 mmHg 60%
    22:00 +9°C° 0 mm 2 mps 674 mmHg 59%
    23:00 +9°C° 0 mm 2 mps 674 mmHg 58%
    Show more